Weather History for 08306 - November, 2013

Change the Weather History Date:

Friday, November 8, 2013

  Actual Average Record
Temperature  
Mean Temperature 65 °F -  
Max Temperature 73 °F 63 °F - ()
Min Temperature 57 °F 45 °F - ()
Growing Degree Days 15 (Base 50)    
Moisture  
Dew Point 59 °F    
Average Humidity 82    
Maximum Humidity 100    
Minimum Humidity 52    
Precipitation  
Precipitation 0.00 in 0.06 in - ()
Sea Level Pressure  
Sea Level Pressure 30.01 in    
Wind  
Wind Speed 5 mph ()    
Max Wind Speed 18 mph    
Max Gust Speed -    
Visibility 4.7 miles    
Events Fog    
T = Trace of Precipitation, MM = Missing Value Source: Averaged Metar Reports

Daily Weather History Graph

Daily Weather History Graph

Search for Another Location

Airport or City:

Trip Planner

Search our weather history database for the weather conditions in past years. The results will help you decide how hot, cold, wet, or windy it might be!

Date:

Astronomy

Nov. 08, 2013 Rise Set
Actual Time 7:25 AM CET 5:39 PM CET
Civil Twilight 6:56 AM CET 6:08 PM CET
Nautical Twilight 6:24 AM CET 6:40 PM CET
Astronomical Twilight 5:53 AM CET 7:11 PM CET
Moon 12:09 PM CET (11/8) 10:42 PM CET (11/8)
Length of Visible Light 11h 11m
Length of Day
10h 14m
Waxing Crescent, 30% of the Moon is Illuminated
Nov 8
Waxing Crescent
Nov 10
First Quarter
Nov 17
Full
Nov 25
Last Quarter
Dec 3
New

Hourly Weather History & Observations

Time (CET) Temp. Dew Point Humidity Pressure Visibility Wind Dir Wind Speed Gust Speed Precip Events Conditions
12:00 AM 57.2 °F 57.2 °F 100% 30.06 in 3.7 mi Calm Calm - N/A Fog Patches of Fog
12:02 AM 57.2 °F 57.2 °F 100% 30.04 in 2.5 mi North 1.2 mph - N/A Fog Patches of Fog
12:30 AM 57.2 °F 55.4 °F 94% 30.04 in 2.5 mi Calm Calm - N/A Fog Patches of Fog
1:00 AM 57 °F 57 °F 99% 30.06 in 2 mi North 1.2 mph - - Fog Patches of Fog
1:00 AM 57.2 °F 57.2 °F 100% 30.04 in 2.5 mi Calm Calm - N/A Fog Patches of Fog
1:19 AM 59.0 °F 57.2 °F 94% 30.04 in 0.5 mi Calm Calm - N/A Fog Patches of Fog
1:30 AM 59.0 °F 57.2 °F 94% 30.04 in 0.2 mi Calm Calm - N/A Fog Fog
2:00 AM 57.2 °F 57.2 °F 100% 30.04 in 0.2 mi Calm Calm - N/A Fog Fog
2:30 AM 57.2 °F 57.2 °F 100% 30.04 in 0.2 mi North 1.2 mph - N/A Fog Fog
3:00 AM 57.2 °F 57.2 °F 100% 30.04 in 0.2 mi North 1.2 mph - N/A Fog Fog
3:30 AM 57.2 °F 57.2 °F 100% 30.01 in 0.2 mi Calm Calm - N/A Fog Patches of Fog
4:00 AM 57.2 °F 57.2 °F 100% 30.01 in 0.2 mi North 2.3 mph - N/A Fog Patches of Fog
4:30 AM 59.0 °F 57.2 °F 94% 30.01 in 0.4 mi Calm Calm - N/A Fog Patches of Fog
5:00 AM 59.0 °F 57.2 °F 94% 30.01 in 0.5 mi East 2.3 mph - N/A Fog Patches of Fog
5:15 AM 57.2 °F 57.2 °F 100% 30.01 in 2.5 mi Calm Calm - N/A Fog Patches of Fog
5:30 AM 57.2 °F 57.2 °F 100% 30.01 in 2.5 mi Variable 1.2 mph - N/A   Partly Cloudy
6:00 AM 59.0 °F 59.0 °F 100% 29.98 in 2.5 mi ENE 1.2 mph - N/A   Partly Cloudy
6:09 AM 59.0 °F 59.0 °F 100% 29.98 in 3.7 mi Calm Calm - N/A   Partly Cloudy
6:30 AM 59.0 °F 59.0 °F 100% 29.98 in 4.3 mi Calm Calm - N/A   Partly Cloudy
7:00 AM 64 °F 63 °F 96% 29.99 in 7 mi SW 4.6 mph - -   Partly Cloudy
7:00 AM 66.2 °F 66.2 °F 100% 29.98 in 6.2 mi SW 9.2 mph - N/A   Scattered Clouds
7:30 AM 62.6 °F 60.8 °F 94% 29.98 in 6.2 mi WSW 9.2 mph - N/A   Scattered Clouds
8:00 AM 62.6 °F 60.8 °F 94% 30.01 in 6.2 mi Variable 2.3 mph - N/A   Scattered Clouds
8:30 AM 68.0 °F 64.4 °F 88% 30.01 in 6.2 mi WSW 9.2 mph - N/A   Partly Cloudy
9:00 AM 68.0 °F 64.4 °F 88% 30.01 in 6.2 mi WSW 10.4 mph - N/A   Scattered Clouds
9:30 AM 69.8 °F 62.6 °F 78% 30.01 in 6.2 mi WSW 11.5 mph - N/A   Partly Cloudy
10:00 AM 71.6 °F 60.8 °F 69% 30.01 in 6.2 mi WSW 13.8 mph - N/A   Partly Cloudy
10:30 AM 71.6 °F 59.0 °F 64% 30.01 in 6.2 mi WSW 13.8 mph - N/A   Partly Cloudy
11:00 AM 71.6 °F 59.0 °F 64% 30.01 in 6.2 mi WSW 15.0 mph - N/A   Partly Cloudy
11:30 AM 71.6 °F 59.0 °F 64% 30.01 in 6.2 mi WSW 16.1 mph - N/A   Partly Cloudy
12:00 PM 71.6 °F 59.0 °F 64% 30.01 in 6.2 mi SW 15.0 mph - N/A   Partly Cloudy
12:30 PM 71.6 °F 60.8 °F 69% 30.01 in 6.2 mi SW 13.8 mph - N/A   Partly Cloudy
1:00 PM 73 °F 59 °F 52% 29.99 in 19 mi SW 13.8 mph - -   Scattered Clouds
1:00 PM 71.6 °F 59.0 °F 64% 29.98 in 6.2 mi WSW 12.7 mph - N/A   Partly Cloudy
1:30 PM 71.6 °F 60.8 °F 69% 29.98 in 6.2 mi SW 13.8 mph - N/A   Partly Cloudy
2:00 PM 71.6 °F 60.8 °F 69% 29.98 in 6.2 mi SW 15.0 mph - N/A   Partly Cloudy
2:30 PM 71.6 °F 60.8 °F 69% 29.98 in 6.2 mi SW 13.8 mph - N/A   Partly Cloudy
3:00 PM 71.6 °F 59.0 °F 64% 29.98 in 6.2 mi WSW 15.0 mph - N/A   Partly Cloudy
3:30 PM 71.6 °F 57.2 °F 60% 29.98 in 6.2 mi WSW 18.4 mph - N/A   Partly Cloudy
4:00 PM 69.8 °F 59.0 °F 68% 29.98 in 6.2 mi WSW 17.3 mph - N/A   Partly Cloudy
4:30 PM 69.8 °F 57.2 °F 64% 29.98 in 6.2 mi WSW 13.8 mph - N/A   Partly Cloudy
5:00 PM 68.0 °F 57.2 °F 68% 30.01 in - WSW 12.7 mph - N/A   Clear
5:30 PM 68.0 °F 55.4 °F 64% 30.01 in 6.2 mi WSW 10.4 mph - N/A   Partly Cloudy
6:00 PM 66.2 °F 57.2 °F 73% 30.01 in - WSW 9.2 mph - N/A   Clear
6:30 PM 66.2 °F 57.2 °F 73% 30.01 in - West 8.1 mph - N/A   Clear
7:00 PM 66 °F 56 °F 62% 30.02 in 16 mi WSW 4.6 mph - -   Clear
7:00 PM 66.2 °F 57.2 °F 73% 30.01 in - West 8.1 mph - N/A   Clear
7:30 PM 68.0 °F 57.2 °F 68% 30.01 in - West 9.2 mph - N/A   Clear
8:00 PM 66.2 °F 57.2 °F 73% 30.01 in - West 8.1 mph - N/A   Clear
8:30 PM 66.2 °F 57.2 °F 73% 30.04 in - West 6.9 mph - N/A   Clear
9:00 PM 66.2 °F 59.0 °F 78% 30.04 in - West 4.6 mph - N/A   Clear
9:30 PM 66.2 °F 60.8 °F 83% 30.04 in - West 9.2 mph - N/A   Clear
10:00 PM 66.2 °F 60.8 °F 83% 30.04 in - West 6.9 mph - N/A   Clear
10:30 PM 66.2 °F 60.8 °F 83% 30.04 in - Variable 1.2 mph - N/A   Clear
11:00 PM 60.8 °F 57.2 °F 88% 30.04 in - Calm Calm - N/A   Clear
11:30 PM 59.0 °F 57.2 °F 94% 30.04 in - Calm Calm - N/A   Clear